Location: Unspecified
(32.5099°N, 80.0190°W)
Time: 03:36:53
(UTC-04:00)

CZ-3 Stage 3 - Visible Passes

Search period start: 27 June 2016 00:00
Search period end: 07 July 2016 00:00
Orbit: 444 x 34760 km, 30.4° (Epoch: 24 June)

Date Brightness Start Highest point End Pass type
(mag) Time Alt. Az. Time Alt. Az. Time Alt. Az.
29 Jun 4.2 01:44:24 10° W 02:01:22 49° W 02:01:22 49° W visible
29 Jun 5.9 13:39:35 10° S 22:19:12 72° SSE 22:31:49 10° E visible
02 Jul 4.3 01:35:55 10° W 01:52:52 48° W 01:52:52 48° W visible
02 Jul 5.9 13:30:55 10° S 22:10:46 73° SSE 22:23:24 10° E visible
05 Jul 4.3 01:27:27 10° W 01:44:24 48° W 01:44:24 48° W visible
05 Jul 5.9 13:22:09 10° S 22:02:21 74° SSE 22:15:00 10° E visible
